e作者how0107 (LEVI'S)
看板NPUST
标题[请益] 关於机车机油
时间Tue Apr 13 02:29:08 2010
小弟最近想换机油
不知道是否有同学知道这里有哪间机车行
有再换REPSOL 10W 50
如果可以的话
顺便说一下价钱
感激不尽
感谢C大 已修正
--
※ 发信站: 批踢踢实业坊(ptt.cc)
◆ From: 114.33.222.101
1F:→ cashjay:活水豆花隔壁有可以去问问。 04/13 02:54
2F:推 TRIGUNKING:换好油不如常换油...... 04/13 09:01
3F:推 justice7696:壳牌 10W40 350 cepso 10W50 400 04/13 11:47
4F:→ justice7696:REPSOL 之前觉得还好 不过屏东市有一间有 04/13 11:47
5F:推 pk987456:推屏科大机油!!! 好物,100CC 直冲120KM/H 04/13 11:55
6F:推 kimo9966:原来机油可以让100CC冲120...真强...Orz. 04/13 12:27
7F:→ CottonSR:帮原PO更正一下 是10W50才对XD 04/13 12:54
※ 编辑: how0107 来自: 140.127.32.118 (04/13 13:13)
8F:→ zenki000000:曾去换机油时 车行老板说 你用很好的油喔 04/13 16:51
9F:→ zenki000000:结果只是罐100左右的中油油品... 04/13 16:51
10F:→ pk987456:屏科外机车行..不意外..哈 04/13 16:57
11F:→ a0004175:中油的一百就不错...国外的抽很多利润...中油工作的亲戚 04/13 17:42
12F:→ a0004175:也说...机油利润真的很高~ 04/13 17:42
13F:→ a0004175:楼上...100cc冲120km/hr...这种事情我干过~ 04/13 17:43
14F:→ a0004175:结果是...花9000元引擎大修~因为吃油吃太严重~ 04/13 17:44
15F:→ a0004175:吃到剩下1xx cc~ 那时候心都在淌血~ 压岁钱没了 04/13 17:45
16F:→ ROCMC:10W50可以选TOTAL的 价钱也漂亮许多 你这罐料钱要四百多 04/13 19:48
17F:→ CottonSR:推楼上 这罐在Biker板有人PO心得 可参考看看 04/13 20:23
18F:→ pk987456:花九千块直接改了 04/13 21:12
19F:推 a0004175:9000无法改...除非工不用钱...因为修的地方太多了~ 04/13 21:16
20F:→ free12377:也推TOTAL...不难用 04/13 22:02
21F:→ pk987456:= =" 屏科大机油 威力十足阿.. 04/13 23:14
22F:→ how0107:我看不太懂屏科大机油耶 有人可以解释一下吗? 04/14 03:56
23F:推 SLEEPxN:我自己有在帮人换机油,油品是德国RMV机油,一般市面看不 04/14 14:53
24F:→ SLEEPxN:到,价格250、350、450。分别是15W40、10W40、5W40和10W60 04/14 14:55
25F:→ SLEEPxN:可以来换换看,只是怕你一换就上瘾^^,我挡车自己加了2年 04/14 14:56
26F:→ SLEEPxN:想要试试看的话,站内信给我吧,力豹士和阿吉普裂化比较快 04/14 14:58
27F:→ how0107:谢谢S大,太晚看到你推文,已经换了,下次有需要再找你 04/14 16:27